• In France
  • List of Countries
  • For 7 days
  • Water Temperature
  • Satellite Maps
  • Weather Map
  • Weather Widgets
  • user-avatar
    Login

    Hourly Weather Haradok

    Today, 22 June, Friday

    Time Temperature Precipitation Wind Pressure Humidity
    00:00 +20°C° 0.4 mm 4 mps 741 mmHg 84%
    01:00 +19°C° 0.4 mm 4 mps 740 mmHg 87%
    02:00 +19°C° 0 mm 4 mps 739 mmHg 89%
    03:00 +19°C° 0.4 mm 4 mps 739 mmHg 91%
    04:00 +19°C° 0.4 mm 4 mps 739 mmHg 93%
    05:00 +19°C° 0.4 mm 4 mps 740 mmHg 96%
    06:00 +18°C° 0.1 mm 4 mps 740 mmHg 94%
    07:00 +18°C° 0.1 mm 4 mps 740 mmHg 92%
    08:00 +17°C° 0.1 mm 4 mps 741 mmHg 91%
    09:00 +18°C° 0 mm 4 mps 741 mmHg 82%
    10:00 +19°C° 0 mm 4 mps 742 mmHg 74%
    11:00 +19°C° 0 mm 4 mps 742 mmHg 65%
    12:00 +19°C° 0 mm 4 mps 742 mmHg 65%
    13:00 +18°C° 0 mm 4 mps 743 mmHg 65%
    14:00 +18°C° 0 mm 4 mps 743 mmHg 64%
    15:00 +18°C° 0 mm 4 mps 743 mmHg 64%
    16:00 +18°C° 0 mm 4 mps 744 mmHg 64%
    17:00 +17°C° 0 mm 3 mps 744 mmHg 64%
    18:00 +17°C° 0 mm 3 mps 744 mmHg 66%
    19:00 +16°C° 0 mm 2 mps 744 mmHg 69%
    20:00 +16°C° 0 mm 2 mps 745 mmHg 71%
    21:00 +15°C° 0 mm 2 mps 745 mmHg 72%
    22:00 +14°C° 0 mm 2 mps 745 mmHg 73%
    23:00 +13°C° 0 mm 2 mps 745 mmHg 75%

    Tomorrow, 23 June, Saturday

    Time Temperature Precipitation Wind Pressure Humidity
    00:00 +13°C° 0 mm 1 mps 746 mmHg 75%
    01:00 +13°C° 0 mm 1 mps 746 mmHg 75%
    02:00 +13°C° 0 mm 1 mps 746 mmHg 74%
    03:00 +13°C° 0 mm 1 mps 746 mmHg 77%
    04:00 +13°C° 0 mm 1 mps 746 mmHg 79%
    05:00 +13°C° 0 mm 1 mps 746 mmHg 82%
    06:00 +13°C° 0.2 mm 1 mps 746 mmHg 81%
    07:00 +14°C° 0.2 mm 1 mps 746 mmHg 81%
    08:00 +14°C° 0.2 mm 1 mps 746 mmHg 80%
    09:00 +14°C° 0.4 mm 1 mps 746 mmHg 81%
    10:00 +14°C° 0.4 mm 1 mps 746 mmHg 82%
    11:00 +14°C° 0.4 mm 1 mps 746 mmHg 83%
    12:00 +14°C° 0.6 mm 1 mps 746 mmHg 85%
    13:00 +14°C° 0.6 mm 1 mps 746 mmHg 87%
    14:00 +14°C° 0.6 mm 1 mps 746 mmHg 89%
    15:00 +14°C° 0.2 mm 1 mps 746 mmHg 86%
    16:00 +14°C° 0.2 mm 1 mps 745 mmHg 84%
    17:00 +15°C° 0.2 mm 1 mps 745 mmHg 82%
    18:00 +14°C° 0.1 mm 1 mps 745 mmHg 86%
    19:00 +13°C° 0.1 mm 1 mps 745 mmHg 89%
    20:00 +13°C° 0.1 mm 1 mps 744 mmHg 93%
    21:00 +12°C° 0.2 mm 1 mps 744 mmHg 94%
    22:00 +12°C° 0.2 mm 1 mps 744 mmHg 95%
    23:00 +11°C° 0.2 mm 1 mps 744 mmHg 96%

    Day after tomorrow, 24 June, Sunday

    Time Temperature Precipitation Wind Pressure Humidity
    00:00 +11°C° 0.7 mm 1 mps 743 mmHg 96%
    01:00 +11°C° 0.7 mm 1 mps 743 mmHg 97%
    02:00 +11°C° 0.7 mm 1 mps 742 mmHg 97%
    03:00 +10°C° 1.3 mm 2 mps 742 mmHg 97%
    04:00 +10°C° 1.3 mm 2 mps 742 mmHg 97%
    05:00 +10°C° 1.3 mm 3 mps 741 mmHg 97%
    06:00 +10°C° 1.1 mm 3 mps 741 mmHg 96%
    07:00 +11°C° 1.1 mm 3 mps 741 mmHg 95%
    08:00 +11°C° 1.1 mm 3 mps 741 mmHg 95%
    09:00 +11°C° 0.8 mm 3 mps 742 mmHg 93%
    10:00 +12°C° 0.8 mm 3 mps 742 mmHg 91%
    11:00 +12°C° 0.8 mm 3 mps 742 mmHg 89%
    12:00 +13°C° 0.3 mm 4 mps 743 mmHg 85%
    13:00 +14°C° 0.3 mm 4 mps 743 mmHg 80%
    14:00 +15°C° 0.3 mm 4 mps 744 mmHg 75%
    15:00 +15°C° 0.4 mm 4 mps 744 mmHg 75%
    16:00 +17°C° 0.4 mm 3 mps 744 mmHg 74%
    17:00 +17°C° 0.4 mm 3 mps 745 mmHg 74%
    18:00 +16°C° 0.2 mm 2 mps 745 mmHg 79%
    19:00 +15°C° 0.2 mm 1 mps 745 mmHg 84%
    20:00 +13°C° 0.2 mm 1 mps 745 mmHg 89%
    21:00 +12°C° 0 mm 1 mps 746 mmHg 90%
    22:00 +11°C° 0 mm 1 mps 746 mmHg 92%
    23:00 +9°C° 0 mm 0 mps 746 mmHg 93%

    25 June, Monday

    Time Temperature Precipitation Wind Pressure Humidity
    00:00 +10°C° 0 mm 1 mps 746 mmHg 94%
    01:00 +10°C° 0 mm 1 mps 747 mmHg 95%
    02:00 +9°C° 0 mm 1 mps 747 mmHg 95%
    03:00 +10°C° 0 mm 1 mps 747 mmHg 95%
    04:00 +10°C° 0 mm 1 mps 747 mmHg 95%
    05:00 +11°C° 0 mm 1 mps 748 mmHg 95%
    06:00 +12°C° 0 mm 1 mps 748 mmHg 88%
    07:00 +14°C° 0 mm 1 mps 748 mmHg 82%
    08:00 +16°C° 0 mm 1 mps 748 mmHg 76%
    09:00 +18°C° 0.4 mm 1 mps 748 mmHg 72%
    10:00 +18°C° 0.4 mm 2 mps 748 mmHg 68%
    11:00 +19°C° 0.4 mm 2 mps 748 mmHg 65%
    12:00 +19°C° 0.6 mm 2 mps 749 mmHg 66%
    13:00 +19°C° 0.6 mm 2 mps 749 mmHg 67%
    14:00 +20°C° 0.6 mm 3 mps 749 mmHg 68%
    15:00 +19°C° 1 mm 2 mps 749 mmHg 71%
    16:00 +19°C° 1 mm 2 mps 749 mmHg 74%
    17:00 +19°C° 1 mm 2 mps 749 mmHg 77%
    18:00 +18°C° 0.9 mm 2 mps 749 mmHg 81%
    19:00 +16°C° 0.9 mm 2 mps 749 mmHg 85%
    20:00 +15°C° 0.9 mm 2 mps 749 mmHg 89%
    21:00 +14°C° 0.1 mm 2 mps 749 mmHg 91%
    22:00 +13°C° 0.1 mm 2 mps 750 mmHg 93%
    23:00 +12°C° 0.1 mm 2 mps 750 mmHg 95%

    26 June, Tuesday

    Time Temperature Precipitation Wind Pressure Humidity
    00:00 +12°C° 0 mm 2 mps 750 mmHg 95%
    01:00 +10°C° 0 mm 2 mps 750 mmHg 96%
    02:00 +10°C° 0 mm 2 mps 750 mmHg 96%
    03:00 +10°C° 0 mm 2 mps 750 mmHg 96%
    04:00 +10°C° 0 mm 2 mps 750 mmHg 96%
    05:00 +12°C° 0 mm 2 mps 750 mmHg 97%
    06:00 +13°C° 0 mm 2 mps 750 mmHg 92%
    07:00 +14°C° 0 mm 2 mps 750 mmHg 88%
    08:00 +16°C° 0 mm 2 mps 750 mmHg 84%
    09:00 +16°C° 0.2 mm 2 mps 750 mmHg 79%
    10:00 +17°C° 0.2 mm 2 mps 750 mmHg 73%
    11:00 +18°C° 0.2 mm 3 mps 750 mmHg 68%
    12:00 +18°C° 0.2 mm 3 mps 750 mmHg 66%
    13:00 +19°C° 0.2 mm 3 mps 750 mmHg 65%
    14:00 +19°C° 0.2 mm 3 mps 750 mmHg 63%
    15:00 +19°C° 0.6 mm 3 mps 750 mmHg 69%
    16:00 +18°C° 0.6 mm 3 mps 749 mmHg 74%
    17:00 +18°C° 0.6 mm 2 mps 749 mmHg 80%
    18:00 +17°C° 0.5 mm 2 mps 749 mmHg 84%
    19:00 +16°C° 0.5 mm 2 mps 749 mmHg 87%
    20:00 +15°C° 0.5 mm 1 mps 749 mmHg 91%
    21:00 +14°C° 0.1 mm 1 mps 749 mmHg 92%
    22:00 +14°C° 0.1 mm 1 mps 749 mmHg 94%
    23:00 +13°C° 0.1 mm 2 mps 749 mmHg 95%

    27 June, Wednesday

    Time Temperature Precipitation Wind Pressure Humidity
    00:00 +12°C° 0 mm 1 mps 749 mmHg 95%
    01:00 +12°C° 0 mm 1 mps 749 mmHg 96%
    02:00 +12°C° 0 mm 1 mps 749 mmHg 97%
    03:00 +12°C° 0.1 mm 1 mps 749 mmHg 97%
    04:00 +12°C° 0.1 mm 1 mps 749 mmHg 97%
    05:00 +13°C° 0.1 mm 1 mps 749 mmHg 97%
    06:00 +14°C° 0.1 mm 1 mps 750 mmHg 93%
    07:00 +15°C° 0.1 mm 1 mps 750 mmHg 89%
    08:00 +18°C° 0.1 mm 1 mps 750 mmHg 85%
    09:00 +19°C° 0.8 mm 1 mps 750 mmHg 82%
    10:00 +20°C° 0.8 mm 1 mps 750 mmHg 78%
    11:00 +20°C° 0.8 mm 2 mps 749 mmHg 75%
    12:00 +20°C° 1.2 mm 2 mps 749 mmHg 75%
    13:00 +20°C° 1.2 mm 2 mps 749 mmHg 76%
    14:00 +20°C° 1.2 mm 2 mps 749 mmHg 76%
    15:00 +20°C° 0.9 mm 2 mps 749 mmHg 78%
    16:00 +20°C° 0.9 mm 2 mps 749 mmHg 79%
    17:00 +20°C° 0.9 mm 2 mps 749 mmHg 80%
    18:00 +19°C° 0.3 mm 2 mps 750 mmHg 84%
    19:00 +18°C° 0.3 mm 2 mps 750 mmHg 87%
    20:00 +17°C° 0.3 mm 2 mps 750 mmHg 90%
    21:00 +16°C° 0.3 mm 2 mps 750 mmHg 92%
    22:00 +15°C° 0.3 mm 2 mps 750 mmHg 93%
    23:00 +14°C° 0.3 mm 2 mps 750 mmHg 95%
    Show more